Home   Weather   Vernier   Past weeks

Flag for Switzerland Past Weather in Vernier, Geneva, Switzerland — Yesterday and Last 2 Weeks

Now
36 °F

Fog.


Feels Like: 36 °F
Forecast: 23 / 45 °F
Wind: 2 mph from West

Location: Geneva Cointrin Airport

Current Time: Dec 6, 2016 at 9:30:52 am

Latest Report: Dec 6, 2016 at 8:50 am


Visibility: 3 mi

Pressure: 30.42 "Hg

Humidity: 93%

Dew Point: 34 °F

Location of VernierLocation

Past Weather in Vernier — Graph

°F

Vernier Temperature Yesterday

Maximum temperature yesterday: 39 °F (at 2:50 pm)
Minimum temperature yesterday: 36 °F (at 1:50 am)
Average temperature yesterday: 36 °F

High & Low Weather Summary for the Past Weeks

 TemperatureHumidityPressure
High52 °F (Nov 22, 11:50 am)100% (Nov 22, 2:20 am)30.60 "Hg (Nov 22, 2:20 am)
Low25 °F (Nov 30, 5:50 am)56% (Nov 28, 7:20 pm)29.62 "Hg (Nov 21, 8:20 am)
Average40 °F87%30.11 "Hg
* Reported Nov 21 8:20 am — Dec 6 8:20 am, Vernier, Weather by CustomWeather, © 2016

Note: Actual official high and low records may vary slightly from our data, if they occured in-between our weather recording intervals... More about our weather records

Advertising

Vernier Weather History for the Previous 24 Hours

Scroll right to see more
 ConditionsComfort  
Time TempWeatherWind HumidityBarometerVisibility
8:20 am
Tue, Dec 6
36 °FFog.2 mph93%30.42 "Hg2 mi
7:50 am36 °FFog.3 mph93%30.42 "Hg2 mi
7:20 am36 °FFog.1 mph93%30.42 "Hg3 mi
6:50 am36 °FFog.2 mph93%30.42 "Hg3 mi
6:20 am36 °FFog.2 mph93%30.39 "Hg3 mi
5:50 am36 °FFog.1 mph93%30.39 "Hg3 mi
5:20 am36 °FFog.1 mph93%30.39 "Hg2 mi
4:50 am36 °FFog.1 mph93%30.39 "Hg3 mi
4:20 am36 °FFog.1 mph93%30.39 "Hg3 mi
3:50 am36 °FFog.1 mph93%30.39 "Hg2 mi
3:20 am36 °FFog.1 mph93%30.39 "Hg2 mi
2:50 am36 °FFog.2 mph93%30.39 "Hg2 mi
2:20 am36 °FFog.2 mph93%30.39 "Hg2 mi
1:50 am36 °FFog.1 mph93%30.39 "Hg2 mi
1:20 am36 °FFog.2 mph93%30.39 "Hg2 mi
12:50 am36 °FFog.3 mph93%30.39 "Hg2 mi
12:20 am36 °FFog.3 mph93%30.39 "Hg2 mi
11:50 pm
Mon, Dec 5
36 °FFog.2 mph93%30.39 "Hg2 mi
11:20 pm36 °FFog.1 mph93%30.39 "Hg2 mi
10:50 pm36 °FFog.2 mph93%30.39 "Hg3 mi
10:20 pm37 °FFog.2 mph87%30.39 "Hg3 mi
9:50 pm36 °FFog.2 mph93%30.39 "Hg3 mi
9:20 pm37 °FFog.3 mph93%30.39 "Hg3 mi
8:50 pm37 °FFog.3 mph87%30.36 "Hg3 mi
8:20 pm37 °FFog.2 mph87%30.36 "Hg3 mi
7:50 pm37 °FFog.2 mph87%30.36 "Hg3 mi
7:20 pm36 °FFog.3 mph93%30.36 "Hg3 mi
6:50 pm36 °FFog.2 mph93%30.36 "Hg3 mi
6:20 pm36 °FFog.2 mph93%30.36 "Hg3 mi
5:50 pm36 °FFog.1 mph93%30.36 "Hg3 mi
5:20 pm36 °FPassing clouds.1 mph87%30.33 "Hg4 mi
4:50 pm36 °FPassing clouds.1 mph87%30.33 "Hg4 mi
4:20 pm39 °FPassing clouds.1 mph81%30.33 "Hg4 mi
3:50 pm39 °FPassing clouds.1 mph81%30.33 "Hg4 mi
3:20 pm39 °FPassing clouds.2 mph81%30.33 "Hg4 mi
2:50 pm39 °FScattered clouds.1 mph81%30.33 "Hg4 mi
2:20 pm37 °FPartly sunny.2 mph87%30.33 "Hg4 mi
1:50 pm37 °FPartly sunny.1 mph87%30.33 "Hg4 mi
1:20 pm37 °FPartly sunny.2 mph87%30.33 "Hg4 mi
12:50 pm37 °FFog.1 mph87%30.33 "Hg3 mi
12:20 pm36 °FFog.1 mph93%30.36 "Hg3 mi
11:50 am36 °FFog.1 mph87%30.36 "Hg3 mi
11:20 am36 °FFog.2 mph93%30.36 "Hg3 mi
10:50 am36 °FFog.1 mph93%30.36 "Hg3 mi
10:20 am36 °FFog.3 mph93%30.36 "Hg3 mi
9:50 am36 °FFog.2 mph93%30.36 "Hg2 mi
9:20 am36 °FFog.5 mph87%30.36 "Hg2 mi
Weather by CustomWeather, © 2016

See weather overviewHow to use our weather pages